This is the latest recevied weather packets stored in our database for station/object KF4ERV-4. If no packets are shown the sender has not sent any weather packets the latest 10 day(s).
| Time | Temp. | Humidity | Pressure | Rain* | Wind** | Luminosity | Snow |
|---|---|---|---|---|---|---|---|
| 1777568798 | 16.11° C | 49% | 1019 hPa | 0 mm | - | - | - |
| 1777568679 | 16.11° C | 49% | 1019 hPa | 0 mm | - | - | - |
| 1777568508 | 16.67° C | 48% | 1019 hPa | 0 mm | - | - | - |
| 1777568385 | 16.67° C | 48% | 1019 hPa | 0 mm | - | - | - |
| 1777568218 | 16.11° C | 47% | 1019 hPa | 0 mm | - | - | - |
| 1777568085 | 16.11° C | 47% | 1019 hPa | 0 mm | - | - | - |
| 1777567929 | 16.11° C | 47% | 1019 hPa | 0 mm | - | - | - |
| 1777567777 | 16.11° C | 47% | 1019 hPa | 0 mm | - | - | - |
| 1777567638 | 15.56° C | 49% | 1019 hPa | 0 mm | - | - | - |
| 1777567480 | 15.56° C | 49% | 1019 hPa | 0 mm | - | - | - |
| 1777567348 | 15.56° C | 49% | 1018.8 hPa | 0 mm | - | - | - |
| 1777567183 | 15.56° C | 49% | 1018.8 hPa | 0 mm | - | - | - |
| 1777567058 | 15° C | 50% | 1018.1 hPa | 0 mm | - | - | - |
| 1777566887 | 15° C | 50% | 1018.1 hPa | 0 mm | - | - | - |
| 1777566768 | 15° C | 51% | 1018 hPa | 0 mm | - | - | - |
| 1777566578 | 15° C | 51% | 1018 hPa | 0 mm | - | - | - |
| 1777566478 | 14.44° C | 55% | 1018 hPa | 0 mm | - | - | - |
| 1777566281 | 14.44° C | 55% | 1018 hPa | 0 mm | - | - | - |
| 1777566188 | 15° C | 58% | 1018 hPa | 0 mm | - | - | - |
| 1777565984 | 15° C | 58% | 1018 hPa | 0 mm | - | - | - |
| 1777565898 | 15° C | 58% | 1018 hPa | 0 mm | - | - | - |
| 1777565687 | 15° C | 58% | 1018 hPa | 0 mm | - | - | - |
| 1777565608 | 15° C | 58% | 1018 hPa | 0 mm | - | - | - |
| 1777565379 | 15° C | 58% | 1018 hPa | 0 mm | - | - | - |
| 1777565318 | 15° C | 60% | 1018.1 hPa | 0 mm | - | - | - |
* Rain latest hour (hover to see other rain measurements)
** Current wind speed in m/s (hover to see current wind gust speed)